Weather History for PAPG - January, 2012

Change the Weather History Date:

Thursday, January 12, 2012

  Actual Average Record
Temperature  
Mean Temperature 37 °F -  
Max Temperature 39 °F 32 °F 47 °F (1986)
Min Temperature 35 °F 24 °F 1 °F (2005)
Degree Days  
Heating Degree Days 28    
Moisture  
Dew Point 32 °F    
Average Humidity 85    
Maximum Humidity 93    
Minimum Humidity 75    
Precipitation  
Precipitation 0.00 in - - ()
Sea Level Pressure  
Sea Level Pressure 29.83 in    
Wind  
Wind Speed 5 mph (SSE)    
Max Wind Speed 13 mph    
Max Gust Speed 31 mph    
Visibility 7 miles    
Events      
Averages and records for this station are not official NWS values.
T = Trace of Precipitation, MM = Missing Value Source: NWS Daily Summary

Daily Weather History Graph

Daily Weather History Graph

Search for Another Location

Airport or City:

Trip Planner

Search our weather history database for the weather conditions in past years. The results will help you decide how hot, cold, wet, or windy it might be!

Date:

Astronomy

Jan. 12, 2012 Rise Set
Actual Time 8:21 AM AKST 3:39 PM AKST
Civil Twilight 7:34 AM AKST 4:25 PM AKST
Nautical Twilight 6:45 AM AKST 5:14 PM AKST
Astronomical Twilight 6:00 AM AKST 6:00 PM AKST
Moon 8:54 PM AKST (1/12) 9:14 AM AKST (1/12)
Length of Visible Light 8h 51m
Length of Day
7h 17m
Waning Gibbous, 86% of the Moon is Illuminated
Jan 12
Waning Gibbous
Jan 16
Last Quarter
Jan 22
New
Jan 30
First Quarter
Feb 7
Full

Hourly Weather History & Observations

Time (AKST) Temp. Windchill Dew Point Humidity Pressure Visibility Wind Dir Wind Speed Gust Speed Precip Events Conditions
12:16 AM 35.6 °F - 30.2 °F 81% 30.01 in 9.0 mi Calm Calm - N/A   Overcast
12:36 AM 35.6 °F 31.7 °F 32.0 °F 87% 30.00 in 8.0 mi ESE 4.6 mph - N/A   Overcast
12:56 AM 35.6 °F - 32.0 °F 87% 29.98 in 7.0 mi Calm Calm - N/A   Overcast
1:16 AM 35.6 °F - 32.0 °F 87% 29.98 in 9.0 mi Calm Calm - N/A   Overcast
1:36 AM 35.6 °F 30.7 °F 32.0 °F 87% 29.96 in 9.0 mi South 5.8 mph - N/A   Overcast
1:56 AM 35.6 °F 30.7 °F 32.0 °F 87% 29.95 in 10.0 mi ESE 5.8 mph - N/A   Overcast
2:16 AM 35.6 °F - 32.0 °F 87% 29.93 in 8.0 mi Calm Calm - N/A   Overcast
2:36 AM 35.6 °F 29.9 °F 32.0 °F 87% 29.92 in 8.0 mi SSE 6.9 mph - N/A   Overcast
2:56 AM 35.6 °F 32.8 °F 32.0 °F 87% 29.90 in 8.0 mi ENE 3.5 mph - N/A   Overcast
3:16 AM 35.6 °F 32.8 °F 32.0 °F 87% 29.89 in 10.0 mi SW 3.5 mph - N/A   Overcast
3:36 AM 35.6 °F - 30.2 °F 81% 29.88 in 10.0 mi Calm Calm - N/A   Overcast
3:56 AM 35.6 °F 28.6 °F 32.0 °F 87% 29.87 in 10.0 mi South 9.2 mph - N/A   Overcast
4:16 AM 35.6 °F 29.2 °F 32.0 °F 87% 29.85 in 10.0 mi ESE 8.1 mph - N/A   Overcast
4:36 AM 35.6 °F 28.6 °F 32.0 °F 87% 29.83 in 10.0 mi ESE 9.2 mph 20.7 mph N/A   Overcast
4:56 AM 37.4 °F 30.8 °F 30.2 °F 75% 29.82 in 8.0 mi SE 9.2 mph 18.4 mph N/A   Overcast
5:16 AM 35.6 °F 29.9 °F 32.0 °F 87% 29.80 in 10.0 mi ESE 6.9 mph - N/A   Overcast
5:36 AM 37.4 °F 30.8 °F 32.0 °F 81% 29.78 in 10.0 mi ESE 9.2 mph 27.6 mph N/A   Overcast
5:56 AM 37.4 °F 30.3 °F 30.2 °F 75% 29.77 in 10.0 mi East 10.4 mph 31.1 mph N/A   Overcast
6:16 AM 37.4 °F 32.1 °F 32.0 °F 81% 29.75 in 10.0 mi East 6.9 mph 20.7 mph N/A   Overcast
6:36 AM 37.4 °F 30.8 °F 32.0 °F 81% 29.74 in 10.0 mi East 9.2 mph - N/A   Overcast
6:56 AM 37.4 °F 29.3 °F 32.0 °F 81% 29.73 in 10.0 mi ESE 12.7 mph 25.3 mph N/A   Overcast
7:16 AM 37.4 °F 30.3 °F 33.8 °F 87% 29.72 in 10.0 mi ESE 10.4 mph 29.9 mph N/A   Overcast
7:36 AM 37.4 °F 30.8 °F 32.0 °F 81% 29.71 in 10.0 mi ESE 9.2 mph 16.1 mph N/A   Overcast
7:56 AM 37.4 °F 29.8 °F 32.0 °F 81% 29.71 in 3.0 mi ESE 11.5 mph 24.2 mph N/A   Overcast
8:16 AM 37.4 °F - 32.0 °F 81% 29.71 in 3.0 mi Calm Calm - N/A   Overcast
8:36 AM 37.4 °F - 32.0 °F 81% 29.71 in 3.0 mi Calm Calm - N/A   Overcast
8:56 AM 35.6 °F 32.8 °F 33.8 °F 93% 29.73 in 3.0 mi WSW 3.5 mph - N/A   Overcast
9:16 AM 35.6 °F 30.7 °F 32.0 °F 87% 29.74 in 3.0 mi NNW 5.8 mph - N/A   Overcast
9:36 AM 35.6 °F 29.9 °F 32.0 °F 87% 29.75 in 3.0 mi North 6.9 mph - N/A   Overcast
9:56 AM 35.6 °F 29.9 °F 32.0 °F 87% 29.76 in 3.0 mi North 6.9 mph - N/A   Overcast
10:16 AM 35.6 °F 32.8 °F 33.8 °F 93% 29.76 in 3.0 mi NNW 3.5 mph - N/A   Overcast
10:36 AM 35.6 °F - 33.8 °F 93% 29.78 in 3.0 mi Calm Calm - N/A   Overcast
10:56 AM 35.6 °F - 32.0 °F 87% 29.78 in 5.0 mi Calm Calm - N/A   Overcast
11:16 AM 35.6 °F - 32.0 °F 87% 29.79 in 5.0 mi Calm Calm - N/A   Overcast
11:36 AM 35.6 °F - 33.8 °F 93% 29.79 in 5.0 mi Calm Calm - N/A   Overcast
11:56 AM 35.6 °F 30.7 °F 33.8 °F 93% 29.81 in 3.0 mi South 5.8 mph - N/A   Overcast
12:16 PM 37.4 °F 32.1 °F 32.0 °F 81% 29.81 in 3.0 mi SSW 6.9 mph 17.3 mph N/A   Overcast
12:36 PM 37.4 °F 32.8 °F 32.0 °F 81% 29.81 in 3.0 mi South 5.8 mph - N/A   Overcast
12:56 PM 37.4 °F 30.3 °F 32.0 °F 81% 29.82 in 10.0 mi South 10.4 mph 17.3 mph N/A   Overcast
1:16 PM 37.4 °F 29.8 °F 33.8 °F 87% 29.82 in 10.0 mi South 11.5 mph - N/A   Overcast
1:36 PM 39.2 °F 35.9 °F 33.8 °F 81% 29.83 in 10.0 mi North 4.6 mph - N/A   Overcast
1:56 PM 37.4 °F 33.8 °F 32.0 °F 81% 29.84 in 7.0 mi SE 4.6 mph - N/A   Mostly Cloudy
2:16 PM 37.4 °F 32.8 °F 32.0 °F 81% 29.84 in 7.0 mi ESE 5.8 mph - N/A   Mostly Cloudy
2:36 PM 37.4 °F - 33.8 °F 87% 29.84 in 7.0 mi Calm Calm - N/A   Mostly Cloudy
2:56 PM 37.4 °F 33.8 °F 33.8 °F 87% 29.85 in 7.0 mi South 4.6 mph - N/A   Mostly Cloudy
3:16 PM 37.4 °F 30.8 °F 33.8 °F 87% 29.85 in 7.0 mi SSW 9.2 mph - N/A   Mostly Cloudy
3:36 PM 37.4 °F 30.3 °F 33.8 °F 87% 29.85 in 7.0 mi South 10.4 mph - N/A   Mostly Cloudy
3:56 PM 37.4 °F - 33.8 °F 87% 29.85 in 7.0 mi Calm Calm - N/A   Overcast
4:16 PM 37.4 °F - 33.8 °F 87% 29.87 in 7.0 mi Calm Calm - N/A   Overcast
4:36 PM 35.6 °F 31.7 °F 32.0 °F 87% 29.87 in 7.0 mi SSW 4.6 mph - N/A   Overcast
4:56 PM 37.4 °F 33.8 °F 32.0 °F 81% 29.87 in 5.0 mi SSW 4.6 mph 16.1 mph N/A   Overcast
5:16 PM 37.4 °F 31.4 °F 32.0 °F 81% 29.89 in 5.0 mi SSW 8.1 mph - N/A   Overcast
5:36 PM 37.4 °F 31.4 °F 32.0 °F 81% 29.90 in 5.0 mi SW 8.1 mph 16.1 mph N/A   Overcast
5:56 PM 37.4 °F 29.3 °F 32.0 °F 81% 29.90 in 10.0 mi SSW 12.7 mph 19.6 mph N/A   Mostly Cloudy
6:16 PM 35.6 °F 27.5 °F 32.0 °F 87% 29.91 in 10.0 mi SW 11.5 mph - N/A   Mostly Cloudy
6:36 PM 35.6 °F 28.6 °F 30.2 °F 81% 29.92 in 10.0 mi SW 9.2 mph 18.4 mph N/A   Mostly Cloudy
6:56 PM 35.6 °F 28.0 °F 30.2 °F 81% 29.93 in 10.0 mi SSW 10.4 mph 23.0 mph N/A   Overcast
7:16 PM 35.6 °F 28.0 °F 30.2 °F 81% 29.94 in 10.0 mi SSW 10.4 mph 17.3 mph N/A   Mostly Cloudy
7:36 PM 35.6 °F 27.5 °F 28.4 °F 75% 29.95 in 10.0 mi SSW 11.5 mph 16.1 mph N/A   Overcast
7:56 PM 35.6 °F 30.7 °F 28.4 °F 75% 29.97 in 10.0 mi SSW 5.8 mph - N/A   Mostly Cloudy
8:16 PM 35.6 °F 29.9 °F 28.4 °F 75% 29.98 in 10.0 mi SW 6.9 mph - N/A   Mostly Cloudy
8:36 PM 33.8 °F 27.0 °F 28.4 °F 81% 30.00 in 10.0 mi South 8.1 mph - N/A   Mostly Cloudy
8:56 PM 35.6 °F 29.2 °F 26.6 °F 70% 30.01 in 10.0 mi South 8.1 mph 17.3 mph N/A   Overcast
9:16 PM 35.6 °F 29.2 °F 26.6 °F 70% 30.02 in 10.0 mi South 8.1 mph - N/A   Overcast
9:36 PM 33.8 °F 26.4 °F 26.6 °F 75% 30.04 in 10.0 mi South 9.2 mph - N/A   Overcast
9:56 PM 33.8 °F 26.4 °F 28.4 °F 81% 30.05 in 10.0 mi South 9.2 mph - N/A   Mostly Cloudy
10:16 PM 33.8 °F 28.6 °F 28.4 °F 81% 30.06 in 3.0 mi SW 5.8 mph - N/A   Overcast
10:36 PM 33.8 °F 27.7 °F 26.6 °F 75% 30.06 in 10.0 mi SSW 6.9 mph - N/A   Mostly Cloudy
10:56 PM 33.8 °F 29.6 °F 24.8 °F 70% 30.07 in 10.0 mi SW 4.6 mph - N/A   Scattered Clouds
11:16 PM 33.8 °F - 28.4 °F 81% 30.08 in 10.0 mi Calm Calm - N/A   Scattered Clouds
11:36 PM 33.8 °F 26.4 °F 26.6 °F 75% 30.08 in 10.0 mi South 9.2 mph - N/A   Mostly Cloudy
11:56 PM 33.8 °F 27.0 °F 24.8 °F 70% 30.09 in 10.0 mi South 8.1 mph - N/A   Mostly Cloudy